Location: Azul
(36.7830°S, 59.8500°W)
Time: 21:04:58
(UTC-03:00)

ISS - Pass Details

Date: 15 February 2020
Orbit: 415 x 422 km, 51.6° (Epoch: 27 February)

Event Time Altitude Azimuth Distance (km) Brightness Sun altitude
Rises 22:51:06 0° 264° (W) 2,378 0.7 -30.4°
Reaches altitude 10° 22:54:00 10° 237° (WSW) 1,517 -0.1 -30.7°
Enters shadow 22:55:21 14° 213° (SSW) 1,317 -0.4 -30.9°
